Location: Wiesbaden
(50.0830°N, 8.2500°E)
Time: 19:47:59
(UTC+02:00)

ISS - Pass Details

Date: 20 July 2019
Orbit: 409 x 418 km, 51.6° (Epoch: 20 July)

Event Time Altitude Azimuth Distance (km) Brightness Sun altitude
Rises 03:02:42 0° 287° (WNW) 2,350 0.0 -16.5°
Reaches altitude 10° 03:04:50 10° 281° (WNW) 1,484 -1.1 -16.3°
Maximum altitude 03:08:02 45° 208° (SSW) 569 -3.6 -16.1°
Enters shadow 03:09:08 32° 157° (SSE) 736 -2.9 -16.1°
Exits shadow 03:11:55 - 131° (SE) 1,755 -0.8 -15.9°
Sets 03:13:20 0° 128° (SE) 2,331 -0.1 -15.8°
